Regional Weather Roundup
Issued by NWS

Home | Current Version | Previous Version | Graphics & Text | Print | Product List | Glossary On
Versions: 1 2 3 4 5 6 7 8 9 10 11 12 13 14 15 16 17 18 19 20 21 22 23 24 25 26 27 28 29 30 31 32 33 34 35 36 37 38 39 40 41 42 43 44 45 46 47 48 49 50
736
ASUS45 KABQ 281501
RWRNM
NEW MEXICO REGIONAL WEATHER ROUNDUP
NATIONAL WEATHER SERVICE ALBUQUERQUE NM
900 AM MDT SUN MAY 28 2017

NOTE: "FAIR" MEANS FEW OR NO CLOUDS BELOW 12,000 FEET AGL WITH NO
       SIGNIFICANT WEATHER OR OBSTRUCTIONS TO VISION.

      THIS PRODUCT IS RELEASED AS TWO VERSIONS.  ONE VERSION NEAR
      THE TOP OF THE HOUR CONTAINING PRELIMINARY DATA FROM ALBUQUERQUE
      AND OTHER STATIONS.  A FINAL VERSION WITH ADDITIONAL DATA IS
      ISSUED ABOUT 10 MINUTES AFTER THE HOUR.

NMZ501-503-504-510>518-281600-
NORTHWEST PLATEAU/NORTHCENTRAL MOUNTAINS

CITY           SKY/WX    TMP DP  RH WIND       PRES   REMARKS
FARMINGTON     FAIR      56  27  32 CALM      30.26S
LOS ALAMOS     FAIR      55  29  35 N13       30.37R
SANTA FE       FAIR      57  35  43 VRB5      30.33R
TAOS           FAIR      52  28  40 N9        30.37S
ANGEL FIRE     FAIR      45  31  57 S3        30.42R

$$
NMZ402-403-502-505>509-281600-
WESTCENTRAL MOUNTAINS/SOUTHWEST MOUNTAINS

CITY           SKY/WX    TMP DP  RH WIND       PRES   REMARKS
GALLUP         FAIR      62  23  22 E9        30.29S
GRANTS         FAIR      62  23  22 SE12      30.32S
SILVER CITY    FAIR      72  20  13 E9        30.18R

$$
NMZ407-409-411-412-281600-
SOUTHERN DESERTS

CITY           SKY/WX    TMP DP  RH WIND       PRES   REMARKS
DEMING         FAIR      71  39  31 E20G31    30.14R
LAS CRUCES     FAIR      69  34  27 E7        30.17R
HOLLOMAN AFB   FAIR      70  37  30 CALM      30.19R
ALAMOGORDO     FAIR      66  37  34 SE3       30.17R
T OR C         LGT RAIN  65  38  36 N22G30    30.20R

$$
NMZ519>523-281600-
CENTRAL VALLEYS/CENTRAL HIGHLANDS

CITY           SKY/WX    TMP DP  RH WIND       PRES   REMARKS
ALBUQUERQUE    FAIR      64  37  36 E18       30.28R
DOUBLE EAGLE   SUNNY     63  39  42 SE9       30.31R
MORIARTY ARPT  FAIR      58  40  50 S9        30.36R
CLINES CORNERS FAIR      54  30  40 E16G26    30.37R
BELEN          FAIR      62  38  41 CALM      30.28R
SOCORRO        FAIR      64  38  39 N5        30.27S

$$
NMZ524>526-539-540-281600-
SOUTHCENTRAL MOUNTAINS

CITY           SKY/WX    TMP DP  RH WIND       PRES   REMARKS
RUIDOSO        NOT AVBL

$$
NMZ527>531-281600-
NORTHEAST HIGHLANDS/NORTHEAST PLAINS

CITY           SKY/WX    TMP DP  RH WIND       PRES   REMARKS
LAS VEGAS      FAIR      55  31  39 N12       30.37R
RATON          FAIR      57  31  37 NE7       30.34R
CLAYTON        FAIR      61  38  42 N17       30.28R

$$
NMZ532>537-281600-
EASTCENTRAL PLAINS

CITY           SKY/WX    TMP DP  RH WIND       PRES   REMARKS
SANTA ROSA     PTSUNNY   62  35  36 NE8       30.30R
TUCUMCARI      FAIR      65  41  41 NE12      30.26R
CANNON AFB     FAIR      64  41  44 NE22G29   30.26S
CLOVIS AIRPORT FAIR      64  41  42 NE23      30.26R

$$
NMZ028-029-538-281600-
SOUTHEAST PLAINS

CITY           SKY/WX    TMP DP  RH WIND       PRES   REMARKS
ROSWELL        FAIR      67  38  34 NE13      30.25R
ARTESIA        PTSUNNY   64  41  42 N17       30.24S
CARLSBAD       FAIR      65  44  46 NW17      30.22R
HOBBS          SUNNY     64  43  45 N21G26    30.20R


$$




USA.gov is the U.S. government's official web portal to all federal, state and local government web resources and services.